Regional Weather Roundup
Issued by NWS

Home | Current Version | Previous Version | Text Only | Print | Product List | Glossary Off
Versions: 1 2 3 4 5 6 7 8 9 10 11 12 13 14 15 16 17 18 19 20 21 22 23 24 25 26 27 28 29 30 31 32 33 34 35 36 37 38 39 40 41 42 43 44 45 46 47 48 49 50

000
ASUS45 KCYS 121910
RWRWY

WYOMING REGIONAL WEATHER ROUNDUP
NATIONAL WEATHER SERVICE CHEYENNE WY
1200 PM MST FRI FEB 12 2016

NOTE:  "FAIR" INDICATES FEW OR NO CLOUDS BELOW 12,000 FEET
WITH NO SIGNIFICANT WEATHER AND/OR OBSTRUCTIONS TO VISIBILITY.

WYZ001-122000-
YELLOWSTONE NATIONAL PARK

CITY           SKY/WX    TMP DP  RH WIND       PRES   REMARKS
LK YELLOWSTONE   N/A     36  24  62 VRB3      30.33F
W YELLOWSTONE  NOT AVBL

$$
WYZ002>013-054>058-071-098>099-122000-
NORTHERN WYOMING

CITY           SKY/WX    TMP DP  RH WIND       PRES   REMARKS
JACKSON        MOSUNNY   27  27 100 CALM      30.37
CODY           FAIR      52  25  35 E6        30.20F
GREYBULL       FAIR      48  30  49 S5        30.22F
WORLAND        FAIR      46  25  43 VRB3      30.22F
SHERIDAN       CLOUDY    42  31  64 NE3       30.25F
BUFFALO        CLOUDY    42  30  62 SE13      30.25F
GILLETTE       CLOUDY    34  29  82 S13       30.27F WCI  25
HULETT         CLOUDY    34  28  80 CALM      30.30F
NEWCASTLE      CLOUDY    32  30  93 SE9       30.34F WCI  24

$$
WYZ014>020-022>026-101>103-122000-
CENTRAL WYOMING

CITY           SKY/WX    TMP DP  RH WIND       PRES   REMARKS
BIG PINEY      FAIR      39  25  57 SE3       30.36F
PINEDALE         N/A     43  27  52 CALM      30.35F
DUBOIS         FAIR      52  16  24 NW18G28   30.24F
LANDER         FAIR      39  26  59 SE5       30.23F
RIVERTON       FAIR      40  29  64 CALM      30.25F
CASPER         FAIR      42  27  55 NE3       30.27F
DOUGLAS        CLOUDY    45  29  53 S9        30.30F

$$
WYZ021-027>030-104>119-122000-
SOUTHERN WYOMING

CITY           SKY/WX    TMP DP  RH WIND       PRES   REMARKS
EVANSTON       FAIR      37  19  48 SW8       30.37F WCI  31
KEMMERER       FAIR      37  19  48 NW9       30.37F WCI  31
FORT BRIDGER   CLEAR     45  23  42 W3        30.39F
ROCK SPRINGS   FAIR      45  22  40 SW9       30.36F
DIXON          FAIR      33  23  65 CALM      30.43S
RAWLINS        FAIR      42  23  46 SW12      30.33F
SARATOGA       FAIR      45  27  49 S3        30.35F
LARAMIE        FAIR      46  28  49 NE6       30.29F
CHEYENNE       PTSUNNY   48  26  42 S7        30.30F
TORRINGTON     FAIR      45  31  58 SE14      30.32F
PINE BLUFFS    CLOUDY    46  28  49 CALM      30.31F

$$



USA.gov is the U.S. government's official web portal to all federal, state and local government web resources and services.